Main page
METAR-TAF:

METAR-TAF

Airports :

Bushehr Airport

Bushehr, Iran

latitude: 28-59N, longitude: 050-50E, elevation: 19 m

Current weather observation

The report was made 59 minutes ago, at 08:50 UTC
Wind 12 kt from the Northwest
Temperature 24°C
Humidity 74%
Pressure 1018 hPa
Visibility: 7000 m
Few clouds at a height of 1500 ft

METAR: OIBB 170850Z 32012KT 7000 FEW015 24/19 Q1018 A3007

Time: 13:19 (09:49 UTC)


TAF: missing

Weather observations and forecasts of more than 4000 airports (METAR and TAF reports).

The available stations are represented by yellow and red dots on the map.

Hover mouse over dot to see the name of the station.

Then click to see weather observations and forecasts.

To change the map : click on the green buttons with a black cross to zoom in, on the green button with a dash to zoom out, or on the green arrows for adjacent maps.


METAR-TAF: